[[{"header":{"parameterUnit":"m.s-1","parameterCategory":1,"la1":30.2991,"la2":30.254,"lo1":-89.0895,"lo2":-89.0444,"dy":0.0017,"dx":0.0017,"nx":28,"ny":28,"refTime":"2025-06-02T21:00:00:Z","depth":0,"parameterNumber":2,"parameterNumberName":"U-component_of_WINDS"},"data":[0,0,0,0,0,0,0,0,0,0,0,0,0,0,0,0,0,0,0,0,0,0,0,0,0,0,0,0,0,0,0,0,0,0,0,0,0,0,0,0,0,0,0,0,0,0,0,0,0,0,0,0,0,0,0,0,0,0,-2.8776,-2.8777,0,-2.8809,-2.881,-2.881,-2.8693,-2.8689,-2.8685,-2.8682,-2.8716,-2.872,-2.8724,0,0,0,0,0,0,0,0,0,0,0,0,0,-2.8612,-2.8616,-2.8776,-2.8777,-2.8777,-2.8809,-2.881,-2.881,-2.8693,-2.8689,-2.8685,-2.8681,-2.8715,-2.8719,-2.8724,0,0,0,0,0,0,0,0,0,0,0,0,0,-2.8668,-2.8617,-2.8776,-2.8723,-2.8718,-2.8809,-2.881,-2.881,-2.8694,-2.8689,-2.8683,-2.8679,-2.8713,-2.8719,-2.8725,-2.8869,0,0,-2.8744,-2.8747,0,0,0,0,0,0,0,0,-2.8665,-2.8674,-2.873,-2.8727,-2.8722,-2.8741,-2.8764,-2.883,-2.8695,-2.8703,-2.8682,-2.8676,-2.8729,-2.8733,-2.8751,-2.8871,-2.8872,-2.8745,-2.8749,-2.8751,-2.8753,0,0,0,0,0,0,0,-2.8661,-2.8672,-2.8789,-2.8731,-2.8726,-2.8697,-2.8699,-2.8776,-2.8745,-2.8702,-2.8694,-2.8699,-2.8725,-2.8745,-2.8751,-2.8873,-2.8745,-2.875,-2.8754,-2.8756,-2.9111,-2.9117,0,0,0,0,0,0,-2.8664,-2.867,-2.8788,-2.879,-2.868,-2.8704,-2.8706,-2.874,-2.8744,-2.8739,-2.8704,-2.8694,-2.8737,-2.8744,-2.8752,-2.892,-2.8751,-2.8757,-2.8761,-2.9106,-2.9113,-2.9119,0,0,0,0,0,0,-2.8661,-2.8676,-2.8787,-2.8728,-2.874,-2.8712,-2.8752,-2.8744,-2.8763,-2.8745,-2.8739,-2.873,-2.8733,-2.8743,-2.8841,-2.892,-2.876,-2.8766,-2.9099,-2.9108,-2.9116,-2.9259,0,0,0,0,0,0,-2.8657,-2.8676,-2.873,-2.873,-2.8743,-2.8876,-2.8756,-2.8748,-2.8775,-2.8762,-2.8768,-2.8764,-2.873,-2.8832,-2.8847,-2.8925,-2.877,-2.9092,-2.9103,-2.9113,-2.9247,-2.9271,-2.9292,0,0,0,0,0,-2.8652,-2.8769,-2.8734,-2.8749,-2.8811,-2.8881,-2.8888,-2.8847,-2.8782,-2.8836,-2.8824,-2.8764,-2.8909,-2.8843,-2.8859,-2.894,-2.9087,-2.91,-2.9112,-2.9237,-2.9266,-2.9291,0,0,0,0,0,0,-2.878,-2.8768,-2.8729,-2.885,-2.8867,-2.8861,-2.8928,-2.888,-2.8916,-2.8902,-2.8849,-2.8852,-2.8959,-2.8959,-2.8886,-2.9079,-2.8986,-2.9003,-2.9076,-2.9103,-2.9126,-2.9123,-2.8776,0,0,0,0,0,-2.8822,-2.888,-2.8867,-2.8975,-2.8986,-2.8956,-2.8985,-2.8951,-2.8967,-2.8974,-2.8969,-2.8987,-2.9036,-2.907,-2.9114,-2.9246,-2.9246,-2.931,-2.9332,-2.9351,-2.9366,-2.9435,-2.9464,-2.9161,-2.9161,-2.916,0,0,-2.8911,-2.8911,-2.8951,-2.9001,-2.901,-2.9071,-2.8963,-2.9032,-2.9076,-2.8984,-2.9076,-2.9074,-2.909,-2.9205,-2.9256,-2.9209,-2.9449,-2.9367,-2.9382,-2.9387,-2.9452,-2.948,-2.9506,-2.9169,-2.9168,-2.9167,0,0,-2.9102,-2.9109,-2.9199,-2.9211,-2.9227,-2.9206,-2.9228,-2.9229,-2.9224,-2.9315,-2.9247,-2.9299,-2.9386,-2.94,-2.9419,-2.9616,-2.9561,-2.9631,-2.9749,-2.9817,-2.9841,-2.9862,-2.9932,-2.9958,-2.9646,-2.9647,-2.9647,0,-2.921,-2.9299,-2.9252,-2.9326,-2.935,-2.9269,-2.936,-2.9374,-2.9403,-2.9422,-2.9368,-2.9475,-2.948,-2.9597,-2.9645,-2.9663,-2.9686,-2.9631,-2.9842,-2.9862,-2.9881,-2.9947,-2.9974,-2.9655,-2.9654,-2.9653,-2.9653,0,-2.943,-2.9493,-2.9565,-2.9595,-2.9627,-2.9709,-2.9675,-2.9712,-2.9676,-2.9661,-2.9755,-2.9758,-2.9802,-2.9827,-2.9793,-2.994,-2.991,-2.9851,-2.9756,-2.9919,-2.998,-3.0005,-2.9667,-2.9664,-2.9662,-2.966,0,0,-2.9704,-2.9708,-2.9735,-2.9747,-2.9759,-2.9806,-2.9885,-2.9927,-2.996,-2.9984,-3.0048,-3.0123,-3.0067,-3.0088,-3.0054,-3.0115,-3.027,-3.0047,-3.0046,-3.0088,-3.0433,-3.0478,-3.0508,-3.0234,-3.0239,-3.0242,-3.0431,0,-2.9892,-3.0026,-2.9986,-3.0121,-3.0179,-3.0103,-3.0171,-3.0185,-3.0173,-3.022,-3.0206,-3.026,-3.0183,-3.0195,-3.0251,-3.0239,-3.0339,-3.0225,-3.0293,-3.0296,-3.0292,-3.054,-3.0588,-3.0766,-3.0455,-3.0459,-3.0462,0,-3.013,-3.0162,-3.0303,-3.0304,-3.0327,-3.0389,-3.0424,-3.047,-3.0485,-3.0472,-3.0496,-3.0449,-3.0526,-3.0431,-3.0536,-3.046,-3.0485,-3.0484,-3.049,-3.0494,-3.0389,-3.0551,-3.0821,-3.0848,-3.0499,-3.0496,-3.0493,0,-3.0315,-3.0394,-3.0488,-3.0501,-3.0506,-3.0551,-3.0555,-3.0564,-3.0592,-3.0623,-3.0641,-3.0681,-3.0702,-3.0734,-3.07,-3.0634,-3.081,-3.0712,-3.0801,-3.0802,-3.0842,-3.084,-3.112,-3.0859,-3.0858,-3.0858,-3.0857,0,-3.0529,-3.0618,-3.0571,-3.0629,-3.0727,-3.068,-3.0778,-3.0773,-3.0782,-3.0837,-3.0774,-3.0827,-3.0779,-3.0828,-3.0801,-3.0892,-3.0902,-3.0894,-3.0886,-3.09,-3.0901,-3.0915,-3.0902,-3.0865,-3.0863,-3.0862,-3.0861,0,-3.0753,-3.0725,-3.0822,-3.0818,-3.0819,-3.0891,-3.0888,-3.0941,-3.0924,-3.0995,-3.1009,-3.0984,-3.1038,-3.1007,-3.1063,-3.1045,-3.1163,-3.1138,-3.1158,-3.1151,-3.1242,-3.1234,-3.1541,-3.1579,-3.1294,-3.1297,-3.1299,0,-3.0891,-3.0958,-3.0961,-3.0993,-3.1002,-3.1055,-3.1083,-3.104,-3.1072,-3.1093,-3.1144,-3.1193,-3.123,-3.132,-3.1307,-3.1349,-3.1324,-3.1429,-3.133,-3.1342,-3.1326,-3.1322,-3.1328,-3.1449,-3.1452,-3.1455,-3.1457,0,-3.114,-3.1122,-3.1166,-3.1205,-3.124,-3.1268,-3.1291,-3.1322,-3.1278,-3.1317,-3.1372,-3.1401,-3.1458,-3.1507,-3.1543,-3.1547,-3.1496,-3.1489,-3.1511,-3.1526,-3.1535,-3.1531,-3.1212,-3.1482,-3.1479,-3.1478,-3.1476,-3.1475,-3.1324,-3.138,-3.1391,-3.1441,-3.1454,-3.1477,-3.1527,-3.1516,-3.1561,-3.1604,-3.1576,-3.1641,-3.1653,-3.1696,-3.1706,-3.1756,-3.1714,-3.1747,-3.1755,-3.1764,-3.1776,-3.1527,-3.1763,-3.1762,-3.1761,-3.176,-3.176,0,-3.1569,-3.1572,-3.1619,-3.1653,-3.1693,-3.1641,-3.1664,-3.17,-3.1758,-3.1774,-3.1812,-3.1875,-3.1922,-3.1912,-3.1955,-3.1997,-3.1975,-3.201,-3.2006,-3.2008,-3.1812,-3.1788,-3.2027,-3.2027,-3.2027,-3.2027,-3.2027,-3.2027,-3.1701,-3.1792,-3.1777,-3.1874,-3.1876,-3.1939,-3.1957,-3.1977,-3.199,-3.2063,-3.2102,-3.2095,-3.2101,-3.2144,-3.2185,-3.2181,-3.2199,-3.2244,-3.2231,-3.2048,-3.2022,-3.1996,-3.1973,-3.2248,-3.2248,-3.2422,-3.2424,-3.2425]},{"header":{"parameterUnit":"m.s-1","parameterCategory":1,"la1":30.2991,"la2":30.254,"lo1":-89.0895,"lo2":-89.0444,"dy":0.0017,"dx":0.0017,"nx":28,"ny":28,"refTime":"2025-06-02T21:00:00:Z","depth":0,"parameterNumber":3,"parameterNumberName":"V-component_of_WINDS"},"data":[0,0,0,0,0,0,0,0,0,0,0,0,0,0,0,0,0,0,0,0,0,0,0,0,0,0,0,0,0,0,0,0,0,0,0,0,0,0,0,0,0,0,0,0,0,0,0,0,0,0,0,0,0,0,0,0,0,0,-1.0136,-1.0137,0,-1.0208,-1.0209,-1.021,-1.0279,-1.028,-1.0281,-1.0282,-1.0353,-1.0354,-1.0355,0,0,0,0,0,0,0,0,0,0,0,0,0,-1.0055,-1.0056,-1.0136,-1.0137,-1.0138,-1.0208,-1.0209,-1.021,-1.0279,-1.028,-1.0281,-1.0282,-1.0352,-1.0353,-1.0355,0,0,0,0,0,0,0,0,0,0,0,0,0,-1.0105,-1.0056,-1.0136,-1.0181,-1.0186,-1.0208,-1.0209,-1.021,-1.0279,-1.028,-1.0281,-1.0283,-1.0352,-1.0353,-1.0355,-1.0338,0,0,-1.036,-1.036,0,0,0,0,0,0,0,0,-1.0102,-1.0108,-1.0173,-1.0178,-1.0183,-1.0236,-1.0207,-1.0253,-1.0278,-1.0243,-1.0282,-1.0283,-1.0312,-1.0317,-1.0328,-1.0341,-1.0344,-1.036,-1.0361,-1.0361,-1.0362,0,0,0,0,0,0,0,-1.0098,-1.0105,-1.0165,-1.0174,-1.018,-1.0196,-1.0205,-1.0216,-1.0269,-1.0246,-1.0252,-1.0259,-1.0315,-1.0326,-1.033,-1.0345,-1.036,-1.0361,-1.0362,-1.0363,-1.0347,-1.0345,0,0,0,0,0,0,-1.0088,-1.0102,-1.0162,-1.0167,-1.0145,-1.0197,-1.0206,-1.0218,-1.0269,-1.0279,-1.0258,-1.0262,-1.0323,-1.0328,-1.0333,-1.0315,-1.0361,-1.0363,-1.0364,-1.0348,-1.0346,-1.0345,0,0,0,0,0,0,-1.0086,-1.0093,-1.0159,-1.0136,-1.0145,-1.0197,-1.0209,-1.0218,-1.0229,-1.0278,-1.0288,-1.0259,-1.0324,-1.0331,-1.0336,-1.0319,-1.0364,-1.0365,-1.035,-1.0347,-1.0346,-1.028,0,0,0,0,0,0,-1.0084,-1.0092,-1.0087,-1.0135,-1.0146,-1.0162,-1.0208,-1.0219,-1.0232,-1.0238,-1.0282,-1.0291,-1.0326,-1.0333,-1.0337,-1.0322,-1.0366,-1.0351,-1.0349,-1.0346,-1.0284,-1.0276,-1.0269,0,0,0,0,0,-1.0081,-1.0065,-1.0086,-1.0093,-1.0141,-1.0161,-1.0167,-1.0209,-1.0231,-1.0225,-1.0257,-1.0289,-1.032,-1.0333,-1.0339,-1.0323,-1.0353,-1.0349,-1.0346,-1.0287,-1.0278,-1.0269,0,0,0,0,0,0,-1.0013,-1.0072,-1.0096,-1.0096,-1.0123,-1.0173,-1.0167,-1.0197,-1.0218,-1.0222,-1.0272,-1.0281,-1.0281,-1.0303,-1.0316,-1.0308,-1.0341,-1.0339,-1.0294,-1.0285,-1.0278,-1.0272,-1.0368,0,0,0,0,0,-0.9998,-1.001,-1.0061,-1.0056,-1.0068,-1.0115,-1.0125,-1.0155,-1.0184,-1.0196,-1.0228,-1.0254,-1.027,-1.0279,-1.0296,-1.0288,-1.0298,-1.028,-1.0272,-1.0266,-1.0263,-1.0259,-1.0251,-1.0335,-1.0335,-1.0335,0,0,-0.9967,-1.0001,-1.0005,-1.0043,-1.0068,-1.0078,-1.0124,-1.0133,-1.0141,-1.0197,-1.0204,-1.0228,-1.0261,-1.0259,-1.026,-1.0277,-1.0242,-1.0262,-1.0257,-1.0257,-1.0255,-1.0247,-1.024,-1.0333,-1.0333,-1.0333,0,0,-0.9916,-0.9943,-0.9942,-0.9965,-1.0002,-1.0033,-1.0032,-1.0077,-1.0096,-1.0104,-1.0145,-1.0155,-1.0181,-1.0202,-1.0216,-1.0173,-1.0203,-1.0177,-1.0138,-1.0133,-1.0126,-1.0121,-1.0103,-1.0097,-1.0174,-1.0174,-1.0174,0,-0.9872,-0.989,-0.9936,-0.9943,-0.9958,-1.001,-1.0007,-1.0028,-1.0067,-1.0076,-1.0095,-1.0128,-1.0154,-1.0157,-1.0147,-1.0157,-1.0156,-1.0171,-1.0124,-1.0119,-1.0114,-1.0098,-1.0091,-1.017,-1.0171,-1.0171,-1.0171,0,-0.9834,-0.9846,-0.984,-0.9878,-0.9892,-0.9894,-0.9939,-0.9948,-0.9976,-1.0005,-1.0011,-1.0044,-1.0069,-1.0072,-1.0099,-1.0078,-1.0088,-1.0115,-1.0148,-1.0102,-1.0087,-1.0082,-1.0165,-1.0167,-1.0168,-1.0169,0,0,-0.9742,-0.9805,-0.9802,-0.9819,-0.9863,-0.9872,-0.9876,-0.9901,-0.9906,-0.9932,-0.9935,-0.9956,-0.9981,-0.9997,-1.0028,-1.0024,-0.9985,-1.0051,-1.0053,-1.0036,-0.9962,-0.994,-0.9932,-1.0006,-1.0005,-1.0004,-0.9958,0,-0.9697,-0.9708,-0.9749,-0.9747,-0.9757,-0.9807,-0.981,-0.9836,-0.9863,-0.9875,-0.9905,-0.9918,-0.9951,-0.9961,-0.9959,-0.999,-0.997,-0.9994,-1.0008,-1.0007,-0.9996,-0.9925,-0.9902,-0.9858,-0.9953,-0.9952,-0.9952,0,-0.9646,-0.9668,-0.9667,-0.971,-0.9716,-0.9718,-0.9743,-0.9755,-0.9785,-0.9805,-0.9823,-0.9857,-0.9862,-0.9894,-0.9901,-0.9916,-0.9925,-0.994,-0.994,-0.9941,-0.9976,-0.9923,-0.9845,-0.9837,-0.9944,-0.9944,-0.9945,0,-0.9576,-0.9606,-0.9609,-0.9623,-0.9673,-0.9673,-0.9694,-0.9726,-0.9738,-0.976,-0.9767,-0.9789,-0.9801,-0.9816,-0.9855,-0.9875,-0.9857,-0.9892,-0.9872,-0.987,-0.9864,-0.9864,-0.9784,-0.9872,-0.9872,-0.9872,-0.9873,0,-0.952,-0.9517,-0.9579,-0.958,-0.9578,-0.9625,-0.9621,-0.9647,-0.9675,-0.9681,-0.9726,-0.973,-0.9782,-0.9792,-0.9822,-0.9823,-0.9828,-0.9843,-0.9851,-0.9838,-0.9836,-0.9843,-0.9846,-0.9871,-0.9871,-0.9871,-0.9872,0,-0.9442,-0.9483,-0.9489,-0.9536,-0.9548,-0.9544,-0.9584,-0.9587,-0.9617,-0.9624,-0.9629,-0.9675,-0.9689,-0.973,-0.9754,-0.9775,-0.9766,-0.9781,-0.9755,-0.976,-0.9736,-0.9737,-0.9657,-0.9648,-0.9743,-0.9742,-0.9741,0,-0.9403,-0.9401,-0.9449,-0.9457,-0.9476,-0.9488,-0.95,-0.9547,-0.9557,-0.9592,-0.959,-0.9608,-0.9625,-0.9645,-0.968,-0.9699,-0.9714,-0.9685,-0.9717,-0.9704,-0.9712,-0.9711,-0.971,-0.9677,-0.9676,-0.9675,-0.9674,0,-0.9328,-0.9349,-0.9365,-0.9388,-0.9402,-0.9422,-0.9445,-0.9449,-0.95,-0.951,-0.9526,-0.9539,-0.9564,-0.9581,-0.9605,-0.9625,-0.9657,-0.9664,-0.966,-0.9646,-0.963,-0.9637,-0.9734,-0.9665,-0.9666,-0.9667,-0.9667,-0.9668,-0.9268,-0.9268,-0.9301,-0.9318,-0.934,-0.936,-0.9365,-0.9395,-0.9409,-0.9434,-0.946,-0.9473,-0.9502,-0.9538,-0.9556,-0.9566,-0.9583,-0.9577,-0.9576,-0.9573,-0.9566,-0.963,-0.957,-0.9571,-0.9571,-0.9571,-0.9572,0,-0.9194,-0.9218,-0.9233,-0.9263,-0.9276,-0.9307,-0.9333,-0.9341,-0.9352,-0.9377,-0.9393,-0.941,-0.9427,-0.9463,-0.9482,-0.9483,-0.9498,-0.9486,-0.9486,-0.9489,-0.9551,-0.9552,-0.9473,-0.9473,-0.9473,-0.9474,-0.9474,-0.9474,-0.9158,-0.916,-0.9184,-0.9198,-0.9221,-0.9234,-0.9247,-0.9265,-0.9285,-0.9303,-0.9317,-0.9341,-0.937,-0.9392,-0.9408,-0.9418,-0.9422,-0.9405,-0.942,-0.9476,-0.9485,-0.9494,-0.9495,-0.9406,-0.9406,-0.9358,-0.9357,-0.9357]}]]